| time (UTC) | temp C | wind direction | speed KPH | gust KPH | rain 1hr cm | rain 24hr cm | rain mn cm | humidity % | barometer mb |
| 20260505122004 | 12 | 81 | 1.6 | 4.8 | 0.00 | 0.00 | 0.00 | 85 | 1013.4 |
| 20260505121504 | 12 | 80 | 1.6 | 8.0 | 0.00 | 0.00 | 0.00 | 85 | 1013.3 |
| 20260505121004 | 12 | 131 | 1.6 | 8.0 | 0.00 | 0.00 | 0.00 | 85 | 1013.3 |
| 20260505120504 | 12 | 138 | 1.6 | 3.2 | 0.00 | 0.00 | 0.00 | 86 | 1013.4 |
| 20260505120005 | 12 | 70 | 0.0 | 3.2 | 0.00 | 0.00 | 0.00 | 86 | 1013.3 |
| 20260505115504 | 12 | 58 | 1.6 | 6.4 | 0.00 | 0.00 | 0.00 | 87 | 1013.3 |
| 20260505115004 | 12 | 58 | 1.6 | 6.4 | 0.00 | 0.00 | 0.00 | 88 | 1013.3 |
| 20260505114504 | 12 | 75 | 1.6 | 3.2 | 0.00 | 0.00 | 0.00 | 87 | 1013.2 |
| 20260505114005 | 12 | 97 | 1.6 | 3.2 | 0.00 | 0.00 | 0.00 | 87 | 1013.2 |
| 20260505113504 | 12 | 101 | 1.6 | 3.2 | 0.00 | 0.00 | 0.00 | 87 | 1013.2 |
| 20260505112504 | 12 | 79 | 1.6 | 4.8 | 0.00 | 0.00 | 0.00 | 87 | 1013.1 |
| 20260505112004 | 12 | 72 | 1.6 | 4.8 | 0.00 | 0.00 | 0.00 | 87 | 1013.1 |
| 20260505111504 | 12 | 109 | 1.6 | 3.2 | 0.00 | 0.00 | 0.00 | 87 | 1013.0 |
| 20260505111004 | 12 | 68 | 1.6 | 6.4 | 0.00 | 0.00 | 0.00 | 87 | 1013.1 |
| 20260505110504 | 12 | 68 | 1.6 | 6.4 | 0.00 | 0.00 | 0.00 | 87 | 1013.0 |
| 20260505102004 | 12 | 46 | 1.6 | 4.8 | 0.00 | 0.00 | 0.00 | 87 | 1012.6 |
| 20260505101503 | 12 | 43 | 1.6 | 4.8 | 0.00 | 0.00 | 0.00 | 87 | 1012.5 |
| 20260505101004 | 12 | 50 | 1.6 | 4.8 | 0.00 | 0.00 | 0.00 | 87 | 1012.4 |
| 20260505100504 | 12 | 76 | 1.6 | 4.8 | 0.00 | 0.00 | 0.00 | 87 | 1012.4 |
| 20260505095504 | 12 | 83 | 1.6 | 4.8 | 0.00 | 0.00 | 0.00 | 87 | 1012.4 |
| 20260505095004 | 12 | 69 | 1.6 | 4.8 | 0.00 | 0.00 | 0.00 | 87 | 1012.4 |
| 20260505094504 | 12 | 69 | 1.6 | 4.8 | 0.00 | 0.00 | 0.00 | 86 | 1012.3 |
| 20260505094004 | 12 | 62 | 1.6 | 4.8 | 0.00 | 0.00 | 0.00 | 86 | 1012.2 |
| 20260505093504 | 12 | 74 | 1.6 | 4.8 | 0.00 | 0.00 | 0.00 | 86 | 1012.3 |
| 20260505093004 | 12 | 98 | 1.6 | 4.8 | 0.00 | 0.00 | 0.00 | 86 | 1012.2 |
| 20260505092504 | 12 | 66 | 1.6 | 3.2 | 0.00 | 0.00 | 0.00 | 85 | 1012.1 |
| 20260505092004 | 12 | 72 | 1.6 | 4.8 | 0.00 | 0.00 | 0.00 | 85 | 1012.0 |
| 20260505091504 | 12 | 74 | 1.6 | 4.8 | 0.00 | 0.00 | 0.00 | 85 | 1012.0 |
| 20260505091004 | 12 | 43 | 1.6 | 4.8 | 0.00 | 0.00 | 0.00 | 85 | 1012.0 |
| 20260505090504 | 12 | 41 | 1.6 | 4.8 | 0.00 | 0.00 | 0.00 | 85 | 1012.1 |
| 20260505085004 | 12 | 59 | 1.6 | 6.4 | 0.00 | 0.00 | 0.00 | 84 | 1012.0 |
| 20260505084504 | 12 | 241 | 1.6 | 6.4 | 0.00 | 0.00 | 0.00 | 84 | 1011.9 |
| 20260505084004 | 12 | 236 | 1.6 | 6.4 | 0.00 | 0.00 | 0.00 | 84 | 1011.9 |
| 20260505083504 | 12 | 61 | 1.6 | 6.4 | 0.00 | 0.00 | 0.00 | 84 | 1011.8 |
| 20260505083004 | 13 | 63 | 1.6 | 6.4 | 0.00 | 0.00 | 0.00 | 83 | 1011.8 |
| 20260505082505 | 13 | 67 | 1.6 | 4.8 | 0.00 | 0.00 | 0.00 | 83 | 1011.7 |
| 20260505082004 | 13 | 77 | 1.6 | 4.8 | 0.00 | 0.00 | 0.00 | 83 | 1011.7 |
| 20260505081503 | 13 | 33 | 1.6 | 6.4 | 0.00 | 0.00 | 0.00 | 83 | 1011.7 |
| 20260505080506 | 13 | 62 | 1.6 | 4.8 | 0.00 | 0.00 | 0.00 | 82 | 1011.7 |
| 20260505080006 | 13 | 59 | 1.6 | 3.2 | 0.00 | 0.00 | 0.00 | 82 | 1011.6 |
| 20260505075506 | 13 | 62 | 1.6 | 4.8 | 0.00 | 0.00 | 0.00 | 82 | 1011.6 |
| 20260505075006 | 13 | 232 | 0.0 | 4.8 | 0.00 | 0.00 | 0.00 | 82 | 1011.6 |
| 20260505074506 | 13 | 32 | 0.0 | 3.2 | 0.00 | 0.00 | 0.00 | 81 | 1011.5 |
| 20260505074006 | 13 | 38 | 1.6 | 3.2 | 0.00 | 0.00 | 0.00 | 81 | 1011.5 |
| 20260505073506 | 13 | 43 | 0.0 | 3.2 | 0.00 | 0.00 | 0.00 | 81 | 1011.6 |
| 20260505073006 | 13 | 47 | 0.0 | 3.2 | 0.00 | 0.00 | 0.00 | 81 | 1011.5 |
| 20260505072506 | 13 | 56 | 0.0 | 4.8 | 0.00 | 0.00 | 0.00 | 81 | 1011.4 |
| 20260505072006 | 13 | 74 | 0.0 | 4.8 | 0.00 | 0.00 | 0.00 | 80 | 1011.3 |
| 20260505071506 | 14 | 81 | 1.6 | 4.8 | 0.00 | 0.00 | 0.00 | 80 | 1011.2 |
| 20260505071006 | 14 | 69 | 1.6 | 4.8 | 0.00 | 0.00 | 0.00 | 80 | 1011.2 |
| 20260505070006 | 14 | 70 | 1.6 | 4.8 | 0.00 | 0.00 | 0.00 | 80 | 1011.0 |
| 20260505065506 | 14 | 79 | 1.6 | 4.8 | 0.00 | 0.00 | 0.00 | 79 | 1010.9 |
| 20260505064506 | 15 | 65 | 1.6 | 6.4 | 0.00 | 0.00 | 0.00 | 79 | 1010.9 |
| 20260505064005 | 15 | 68 | 1.6 | 4.8 | 0.00 | 0.00 | 0.00 | 79 | 1010.9 |
| 20260505063506 | 15 | 84 | 1.6 | 6.4 | 0.00 | 0.00 | 0.00 | 79 | 1010.8 |
| 20260505063005 | 15 | 87 | 1.6 | 6.4 | 0.00 | 0.00 | 0.00 | 79 | 1010.8 |
| 20260505062506 | 15 | 82 | 1.6 | 6.4 | 0.00 | 0.00 | 0.00 | 78 | 1010.7 |
| 20260505062006 | 15 | 91 | 1.6 | 6.4 | 0.00 | 0.00 | 0.00 | 78 | 1010.7 |
| 20260505061506 | 15 | 86 | 1.6 | 3.2 | 0.00 | 0.00 | 0.00 | 79 | 1010.6 |
| 20260505061005 | 15 | 67 | 1.6 | 3.2 | 0.00 | 0.00 | 0.00 | 78 | 1010.6 |
| 20260505060505 | 15 | 68 | 1.6 | 3.2 | 0.00 | 0.00 | 0.00 | 78 | 1010.5 |
| 20260505060006 | 15 | 49 | 1.6 | 3.2 | 0.00 | 0.00 | 0.00 | 77 | 1010.4 |
| 20260505055505 | 15 | 43 | 0.0 | 3.2 | 0.00 | 0.00 | 0.00 | 77 | 1010.4 |
| 20260505054005 | 16 | 45 | 0.0 | 4.8 | 0.00 | 0.00 | 0.00 | 75 | 1010.2 |
| 20260505053505 | 16 | 52 | 1.6 | 4.8 | 0.00 | 0.00 | 0.00 | 76 | 1010.3 |
| 20260505053005 | 16 | 50 | 1.6 | 3.2 | 0.00 | 0.00 | 0.00 | 75 | 1010.2 |
| 20260505052506 | 16 | 48 | 1.6 | 3.2 | 0.00 | 0.00 | 0.00 | 75 | 1010.1 |
| 20260505052006 | 16 | 36 | 1.6 | 3.2 | 0.00 | 0.00 | 0.00 | 75 | 1010.0 |
| 20260505051005 | 16 | 59 | 1.6 | 4.8 | 0.00 | 0.00 | 0.00 | 75 | 1009.9 |
| 20260505050506 | 16 | 58 | 1.6 | 3.2 | 0.00 | 0.00 | 0.00 | 74 | 1009.9 |
| 20260505041506 | 18 | 41 | 1.6 | 3.2 | 0.00 | 0.00 | 0.00 | 69 | 1009.4 |
| 20260505041005 | 18 | 47 | 0.0 | 3.2 | 0.00 | 0.00 | 0.00 | 67 | 1009.4 |
| 20260505035505 | 18 | 25 | 0.0 | 1.6 | 0.00 | 0.00 | 0.00 | 65 | 1009.2 |
| 20260505035006 | 19 | 239 | 0.0 | 1.6 | 0.00 | 0.00 | 0.00 | 64 | 1009.1 |
| 20260505034506 | 19 | 274 | 0.0 | 1.6 | 0.00 | 0.00 | 0.00 | 63 | 1009.0 |
| 20260505034006 | 20 | 324 | 0.0 | 3.2 | 0.00 | 0.00 | 0.00 | 63 | 1008.9 |
| 20260505033506 | 20 | 258 | 0.0 | 3.2 | 0.00 | 0.00 | 0.00 | 63 | 1008.8 |
| 20260505033005 | 20 | 236 | 0.0 | 3.2 | 0.00 | 0.00 | 0.00 | 62 | 1008.8 |
| 20260505032505 | 20 | 248 | 1.6 | 3.2 | 0.00 | 0.00 | 0.00 | 62 | 1008.8 |
| 20260505032006 | 20 | 26 | 1.6 | 3.2 | 0.00 | 0.00 | 0.00 | 62 | 1008.8 |
| 20260505031506 | 20 | 22 | 0.0 | 3.2 | 0.00 | 0.00 | 0.00 | 62 | 1008.8 |
| 20260505031005 | 21 | 250 | 1.6 | 3.2 | 0.00 | 0.00 | 0.00 | 62 | 1008.7 |
| 20260505030505 | 21 | 237 | 1.6 | 4.8 | 0.00 | 0.00 | 0.00 | 61 | 1008.6 |
| 20260505025506 | 21 | 233 | 3.2 | 6.4 | 0.00 | 0.00 | 0.00 | 59 | 1008.6 |
| 20260505025006 | 21 | 234 | 3.2 | 6.4 | 0.00 | 0.00 | 0.00 | 56 | 1008.5 |
| 20260505024506 | 22 | 238 | 1.6 | 4.8 | 0.00 | 0.00 | 0.00 | 57 | 1008.4 |
| 20260505024006 | 22 | 229 | 3.2 | 4.8 | 0.00 | 0.00 | 0.00 | 55 | 1008.4 |
| 20260505023505 | 22 | 224 | 3.2 | 4.8 | 0.00 | 0.00 | 0.00 | 53 | 1008.3 |
| 20260505023005 | 22 | 225 | 3.2 | 6.4 | 0.00 | 0.00 | 0.00 | 53 | 1008.3 |
| 20260505022505 | 22 | 229 | 3.2 | 6.4 | 0.00 | 0.00 | 0.00 | 52 | 1008.3 |
| 20260505022005 | 22 | 245 | 3.2 | 6.4 | 0.00 | 0.00 | 0.00 | 51 | 1008.4 |
| 20260505021505 | 22 | 256 | 4.8 | 8.0 | 0.00 | 0.00 | 0.00 | 50 | 1008.4 |
| 20260505021005 | 23 | 259 | 4.8 | 9.7 | 0.00 | 0.00 | 0.00 | 50 | 1008.5 |
| 20260505020505 | 23 | 261 | 3.2 | 9.7 | 0.00 | 0.00 | 0.00 | 49 | 1008.4 |
| 20260505020006 | 23 | 256 | 3.2 | 8.0 | 0.00 | 0.00 | 0.00 | 49 | 1008.4 |
| 20260505015505 | 23 | 253 | 3.2 | 8.0 | 0.00 | 0.00 | 0.00 | 49 | 1008.5 |
| 20260505015005 | 23 | 257 | 3.2 | 8.0 | 0.00 | 0.00 | 0.00 | 48 | 1008.4 |
| 20260505014505 | 24 | 267 | 3.2 | 12.9 | 0.00 | 0.00 | 0.00 | 48 | 1008.4 |
| 20260505013506 | 24 | 264 | 4.8 | 16.1 | 0.00 | 0.00 | 0.00 | 46 | 1008.4 |
| 20260505012505 | 25 | 275 | 3.2 | 9.7 | 0.00 | 0.00 | 0.00 | 47 | 1008.3 |
| 20260505012005 | 25 | 324 | 3.2 | 8.0 | 0.00 | 0.00 | 0.00 | 44 | 1008.3 |
| 20260505011505 | 25 | 288 | 3.2 | 6.4 | 0.00 | 0.00 | 0.00 | 42 | 1008.4 |
| 20260505011005 | 25 | 233 | 4.8 | 8.0 | 0.00 | 0.00 | 0.00 | 41 | 1008.3 |
| 20260505010505 | 25 | 228 | 3.2 | 9.7 | 0.00 | 0.00 | 0.00 | 41 | 1008.4 |
| 20260505010005 | 25 | 244 | 3.2 | 9.7 | 0.00 | 0.00 | 0.00 | 41 | 1008.5 |
| 20260505005005 | 25 | 229 | 4.8 | 11.3 | 0.00 | 0.00 | 0.00 | 40 | 1008.4 |
| 20260505004505 | 25 | 237 | 4.8 | 11.3 | 0.00 | 0.00 | 0.00 | 41 | 1008.5 |
| 20260505004005 | 25 | 241 | 4.8 | 9.7 | 0.00 | 0.00 | 0.00 | 41 | 1008.5 |
| 20260505003505 | 25 | 225 | 3.2 | 8.0 | 0.00 | 0.00 | 0.00 | 43 | 1008.5 |
| 20260505003005 | 25 | 241 | 3.2 | 8.0 | 0.00 | 0.00 | 0.00 | 43 | 1008.5 |
| 20260505002505 | 25 | 236 | 3.2 | 9.7 | 0.00 | 0.00 | 0.00 | 41 | 1008.6 |
| 20260505001504 | 25 | 236 | 3.2 | 8.0 | 0.00 | 0.00 | 0.00 | 41 | 1008.6 |
| 20260505000505 | 26 | 271 | 3.2 | 11.3 | 0.00 | 0.00 | 0.00 | 42 | 1008.6 |
| 20260505000005 | 25 | 279 | 3.2 | 8.0 | 0.00 | 0.00 | 0.00 | 43 | 1008.6 |
| 20260504235505 | 25 | 219 | 3.2 | 9.7 | 0.00 | 0.00 | 0.00 | 44 | 1008.6 |
| 20260504235005 | 26 | 227 | 6.4 | 11.3 | 0.00 | 0.00 | 0.00 | 42 | 1008.7 |
| 20260504234505 | 26 | 237 | 6.4 | 14.5 | 0.00 | 0.00 | 0.00 | 43 | 1008.8 |
| 20260504234004 | 26 | 239 | 4.8 | 14.5 | 0.00 | 0.00 | 0.00 | 42 | 1008.8 |
| 20260504233505 | 26 | 213 | 3.2 | 8.0 | 0.00 | 0.00 | 0.00 | 42 | 1008.7 |
| 20260504232005 | 26 | 285 | 3.2 | 11.3 | 0.00 | 0.00 | 0.00 | 40 | 1008.8 |
| 20260504231505 | 26 | 251 | 4.8 | 12.9 | 0.00 | 0.00 | 0.00 | 43 | 1008.8 |
| 20260504231005 | 26 | 253 | 4.8 | 12.9 | 0.00 | 0.00 | 0.00 | 43 | 1008.8 |
| 20260504230505 | 25 | 237 | 3.2 | 11.3 | 0.00 | 0.00 | 0.00 | 44 | 1008.8 |
| 20260504230005 | 25 | 216 | 3.2 | 11.3 | 0.00 | 0.00 | 0.00 | 42 | 1008.8 |
| 20260504225005 | 25 | 268 | 4.8 | 12.9 | 0.00 | 0.00 | 0.00 | 43 | 1009.0 |
| 20260504224504 | 25 | 230 | 4.8 | 12.9 | 0.00 | 0.00 | 0.00 | 44 | 1009.0 |
| 20260504224005 | 25 | 219 | 4.8 | 12.9 | 0.00 | 0.00 | 0.00 | 42 | 1009.1 |
| 20260504223505 | 25 | 234 | 6.4 | 14.5 | 0.00 | 0.00 | 0.00 | 43 | 1009.1 |
| 20260504223005 | 25 | 236 | 8.0 | 16.1 | 0.00 | 0.00 | 0.00 | 44 | 1009.3 |
| 20260504222505 | 25 | 229 | 6.4 | 16.1 | 0.00 | 0.00 | 0.00 | 44 | 1009.4 |
| 20260504222005 | 26 | 227 | 4.8 | 11.3 | 0.00 | 0.00 | 0.00 | 44 | 1009.3 |
| 20260504221505 | 26 | 237 | 4.8 | 14.5 | 0.00 | 0.00 | 0.00 | 44 | 1009.4 |
| 20260504221006 | 26 | 229 | 6.4 | 14.5 | 0.00 | 0.00 | 0.00 | 43 | 1009.5 |
| 20260504220505 | 26 | 211 | 4.8 | 12.9 | 0.00 | 0.00 | 0.00 | 43 | 1009.6 |
| 20260504220005 | 26 | 219 | 4.8 | 12.9 | 0.00 | 0.00 | 0.00 | 43 | 1009.6 |
| 20260504215505 | 26 | 228 | 3.2 | 9.7 | 0.00 | 0.00 | 0.00 | 42 | 1009.6 |
| 20260504215005 | 26 | 225 | 4.8 | 9.7 | 0.00 | 0.00 | 0.00 | 42 | 1009.7 |
| 20260504214505 | 26 | 221 | 4.8 | 12.9 | 0.00 | 0.00 | 0.00 | 42 | 1009.7 |
| 20260504214005 | 26 | 227 | 4.8 | 14.5 | 0.00 | 0.00 | 0.00 | 42 | 1009.7 |
| 20260504213505 | 26 | 235 | 6.4 | 17.7 | 0.00 | 0.00 | 0.00 | 43 | 1009.7 |
| 20260504213005 | 26 | 239 | 6.4 | 17.7 | 0.00 | 0.00 | 0.00 | 43 | 1009.7 |
| 20260504212005 | 26 | 242 | 4.8 | 14.5 | 0.00 | 0.00 | 0.00 | 40 | 1009.9 |
| 20260504211505 | 26 | 246 | 4.8 | 12.9 | 0.00 | 0.00 | 0.00 | 41 | 1009.8 |
| 20260504211005 | 27 | 237 | 4.8 | 16.1 | 0.00 | 0.00 | 0.00 | 39 | 1009.9 |
| 20260504210505 | 27 | 239 | 4.8 | 16.1 | 0.00 | 0.00 | 0.00 | 37 | 1009.8 |
| 20260504210005 | 26 | 234 | 4.8 | 11.3 | 0.00 | 0.00 | 0.00 | 37 | 1009.9 |
| 20260504205504 | 26 | 198 | 4.8 | 9.7 | 0.00 | 0.00 | 0.00 | 37 | 1009.9 |
| 20260504205005 | 26 | 219 | 4.8 | 9.7 | 0.00 | 0.00 | 0.00 | 38 | 1009.9 |
| 20260504204504 | 26 | 222 | 3.2 | 11.3 | 0.00 | 0.00 | 0.00 | 37 | 1009.9 |
| 20260504203504 | 26 | 122 | 3.2 | 11.3 | 0.00 | 0.00 | 0.00 | 37 | 1009.9 |
| 20260504203005 | 26 | 116 | 3.2 | 11.3 | 0.00 | 0.00 | 0.00 | 36 | 1010.0 |
| 20260504202505 | 26 | 137 | 3.2 | 8.0 | 0.00 | 0.00 | 0.00 | 37 | 1010.0 |
| 20260504202005 | 26 | 216 | 4.8 | 9.7 | 0.00 | 0.00 | 0.00 | 37 | 1010.0 |
| 20260504201505 | 26 | 207 | 3.2 | 11.3 | 0.00 | 0.00 | 0.00 | 36 | 1010.0 |
| 20260504201005 | 26 | 172 | 3.2 | 11.3 | 0.00 | 0.00 | 0.00 | 38 | 1010.0 |
| 20260504200504 | 25 | 184 | 3.2 | 12.9 | 0.00 | 0.00 | 0.00 | 41 | 1010.1 |
| 20260504195504 | 25 | 124 | 3.2 | 11.3 | 0.00 | 0.00 | 0.00 | 42 | 1010.1 |
| 20260504195005 | 25 | 182 | 3.2 | 11.3 | 0.00 | 0.00 | 0.00 | 40 | 1010.0 |
| 20260504194504 | 25 | 190 | 3.2 | 11.3 | 0.00 | 0.00 | 0.00 | 41 | 1010.1 |
| 20260504193505 | 25 | 181 | 3.2 | 11.3 | 0.00 | 0.00 | 0.00 | 43 | 1010.1 |
| 20260504192005 | 24 | 226 | 3.2 | 9.7 | 0.00 | 0.00 | 0.00 | 46 | 1010.2 |
| 20260504191505 | 24 | 195 | 3.2 | 9.7 | 0.00 | 0.00 | 0.00 | 44 | 1010.2 |
| 20260504191004 | 23 | 192 | 3.2 | 8.0 | 0.00 | 0.00 | 0.00 | 47 | 1010.2 |
| 20260504190005 | 23 | 221 | 4.8 | 8.0 | 0.00 | 0.00 | 0.00 | 46 | 1010.2 |
| 20260504185505 | 23 | 211 | 3.2 | 8.0 | 0.00 | 0.00 | 0.00 | 46 | 1010.3 |
| 20260504185004 | 22 | 214 | 3.2 | 8.0 | 0.00 | 0.00 | 0.00 | 43 | 1010.4 |
| 20260504184505 | 22 | 247 | 3.2 | 11.3 | 0.00 | 0.00 | 0.00 | 44 | 1010.5 |
| 20260504184005 | 22 | 245 | 3.2 | 11.3 | 0.00 | 0.00 | 0.00 | 44 | 1010.5 |
| 20260504183005 | 22 | 247 | 4.8 | 8.0 | 0.00 | 0.00 | 0.00 | 48 | 1010.5 |
| 20260504182505 | 21 | 240 | 4.8 | 9.7 | 0.00 | 0.00 | 0.00 | 49 | 1010.5 |
| 20260504182005 | 21 | 247 | 4.8 | 9.7 | 0.00 | 0.00 | 0.00 | 47 | 1010.6 |
| 20260504181505 | 21 | 267 | 4.8 | 11.3 | 0.00 | 0.00 | 0.00 | 48 | 1010.6 |
| 20260504181005 | 21 | 237 | 4.8 | 12.9 | 0.00 | 0.00 | 0.00 | 49 | 1010.6 |
| 20260504180504 | 21 | 227 | 4.8 | 12.9 | 0.00 | 0.00 | 0.00 | 50 | 1010.6 |
| 20260504180005 | 21 | 226 | 3.2 | 9.7 | 0.00 | 0.00 | 0.00 | 49 | 1010.6 |
| 20260504175505 | 21 | 249 | 3.2 | 6.4 | 0.00 | 0.00 | 0.00 | 50 | 1010.6 |
| 20260504175005 | 20 | 265 | 3.2 | 11.3 | 0.00 | 0.00 | 0.00 | 51 | 1010.6 |
| 20260504174505 | 20 | 267 | 4.8 | 11.3 | 0.00 | 0.00 | 0.00 | 50 | 1010.5 |
| 20260504174004 | 20 | 259 | 4.8 | 11.3 | 0.00 | 0.00 | 0.00 | 52 | 1010.6 |
| 20260504173005 | 20 | 237 | 4.8 | 11.3 | 0.00 | 0.00 | 0.00 | 60 | 1010.6 |
| 20260504172505 | 19 | 230 | 4.8 | 11.3 | 0.00 | 0.00 | 0.00 | 61 | 1010.6 |
| 20260504172004 | 19 | 229 | 4.8 | 9.7 | 0.00 | 0.00 | 0.00 | 63 | 1010.6 |
| 20260504170505 | 18 | 225 | 3.2 | 8.0 | 0.00 | 0.00 | 0.00 | 63 | 1010.6 |
| 20260504150505 | 16 | 325 | 0.0 | 3.2 | 0.00 | 0.00 | 0.00 | 75 | 1010.2 |
| 20260504141004 | 11 | 85 | 0.0 | 1.6 | 0.00 | 0.00 | 0.00 | 88 | 1009.9 |
| 20260504140504 | 11 | 85 | 0.0 | 1.6 | 0.00 | 0.00 | 0.00 | 88 | 1009.8 |